[Iaude] MPEC S133: 2023 QB47 [a=19.00,e=0.67,i=21.2,H=13.1]

mpec at marsden.cfa.harvard.edu mpec at marsden.cfa.harvard.edu
Wed Sep 20 21:48:40 EDT 2023


M.P.E.C. 2023-S133                           Issued 2023 September 21, 01:46 UT

     The Minor Planet Electronic Circulars contain information on unusual
         minor planets, routine data on comets and natural satellites,
         and occasional editorial announcements.  They are published
    on behalf of Division F of the International Astronomical Union by the
          Minor Planet Center, Smithsonian Astrophysical Observatory,
                          Cambridge, MA 02138, U.S.A.
			  
             Prepared using the Tamkin Foundation Computer Network

                              MPC at CFA.HARVARD.EDU
            URL https://www.minorplanetcenter.net/    ISSN 1523-6714

                                   2023 QB47                                    


Observations:
     K23Q47B KC2021 06 06.59998321 55 03.174-17 32 21.79         23.19GVES133F51
     K23Q47B  C2021 08 03.43144621 44 51.078-18 01 03.09         22.63GVES133F51
     K23Q47B  C2021 08 03.44050421 44 50.921-18 01 03.28         23.14GVES133F51
     K23Q47B  C2021 08 03.44956221 44 50.742-18 01 03.86         22.78GVES133F51
     K23Q47B  C2021 08 31.32405121 36 25.491-18 21 19.81         22.68GVES133F51
     K23Q47B  C2021 08 31.35015621 36 25.050-18 21 20.88         23.01GVES133F51
     K23Q47B KC2021 09 07.34206921 34 25.688-18 24 40.06         22.98GVES133F51
     K23Q47B  C2022 08 18.43640922 23 27.477-09 04 01.56         22.98GVES133F51
     K23Q47B  C2022 08 18.44887022 23 27.223-09 04 01.65         22.88GVES133F51
     K23Q47B  C2022 08 18.47385422 23 26.732-09 04 02.90         22.47GVES133F51
     K23Q47B  C2022 08 18.56800922 23 24.919-09 04 07.32         23.02GVES133F52
     K23Q47B  C2022 08 28.40507722 20 14.153-09 12 18.57         22.43GVES133F52
     K23Q47B  C2022 08 28.41856122 20 13.904-09 12 19.31         22.50GVES133F52
     K23Q47B  C2022 08 28.43204422 20 13.627-09 12 19.87         22.16GVES133F52
     K23Q47B  C2022 08 28.51846422 20 11.887-09 12 24.25         22.13GVES133F51
     K23Q47B  C2022 08 28.51915722 20 11.876-09 12 24.31         22.03GVES133F51
     K23Q47B  C2022 09 01.42094122 18 55.670-09 15 43.07         22.97GVES133F51
     K23Q47B  C2022 09 01.43268722 18 55.439-09 15 43.61         22.33GVES133F51
     K23Q47B  C2022 09 01.44456322 18 55.198-09 15 44.33         22.73GVES133F51
     K23Q47B  C2022 09 01.45638022 18 54.952-09 15 45.00         22.53GVES133F51
     K23Q47B  C2022 09 22.38794422 12 30.905-09 31 33.97         22.39GVES133F51
     K23Q47B  C2022 09 22.40010122 12 30.714-09 31 34.64         22.49GVES133F51
     K23Q47B  C2022 09 22.41208222 12 30.465-09 31 34.89         22.44GVES133F51
     K23Q47B  C2022 09 22.42429722 12 30.298-09 31 35.28         22.58GVES133F51
     K23Q47B KC2022 10 24.32324722 06 24.609-09 37 59.29         22.43GVES133F52
     K23Q47B KC2022 11 16.24699522 06 15.066-09 21 45.31         23.67GVES133F51
     K23Q47B KC2023 06 25.57713323 25 41.376+02 39 25.78         22.75GVES133F51
     K23Q47B  C2023 07 15.53921323 25 22.908+03 17 00.40         22.69GVES133F52
     K23Q47B  C2023 07 15.56482223 25 22.779+03 17 02.20         22.28GVES133F52
     K23Q47B  C2023 07 15.57762623 25 22.683+03 17 03.61         21.75GVES133F52
     K23Q47B* C2023 08 18.45953623 18 33.242+03 39 33.59         21.84wXES133F51
     K23Q47B  C2023 08 18.47077923 18 33.032+03 39 33.53         21.87wXES133F51
     K23Q47B  C2023 08 18.48202923 18 32.832+03 39 33.32         21.90wXES133F51
     K23Q47B  C2023 08 21.41963923 17 39.287+03 39 06.86         22.44GVES133F52
     K23Q47B  C2023 08 21.42153923 17 39.232+03 39 06.71         22.20GVES133F52
     K23Q47B  C2023 08 21.43240423 17 39.028+03 39 06.62         22.67GVES133F52
     K23Q47B  C2023 08 21.44135223 17 38.831+03 39 06.73         21.82GVES133F52
     K23Q47B  C2023 08 21.44325123 17 38.820+03 39 06.52         22.17GVES133F52
     K23Q47B  C2023 08 21.45226623 17 38.609+03 39 06.14         22.26GVES133F52
     K23Q47B  C2023 08 21.45416623 17 38.605+03 39 06.21         22.19GVES133F52
     K23Q47B  C2023 08 24.41791423 16 42.478+03 38 18.48         21.31GVES133F51
     K23Q47B  C2023 09 06.30270 23 12 21.14 +03 31 17.1          21.4 GVES133G96
     K23Q47B  C2023 09 06.30834 23 12 21.03 +03 31 17.2          21.3 GVES133G96
     K23Q47B  C2023 09 13.40189223 09 50.924+03 25 22.65         21.84GVES133F51
     K23Q47B  C2023 09 13.41477623 09 50.649+03 25 21.92         21.42GVES133F51
     K23Q47B  C2023 09 13.42772723 09 50.371+03 25 21.13         21.47GVES133F51
     K23Q47B  C2023 09 19.31733923 07 46.250+03 19 39.04         21.58GVES133V00
     K23Q47B  C2023 09 19.32285223 07 46.132+03 19 38.86         21.79GVES133V00
     K23Q47B  C2023 09 19.32835123 07 46.016+03 19 38.50         21.30GVES133V00
     K23Q47B  C2023 09 19.33384923 07 45.880+03 19 38.21         21.56GVES133V00
     K23Q47B KC2023 09 19.39382223 07 44.605+03 19 34.54         21.37GVES133V06
     K23Q47B KC2023 09 19.39867423 07 44.508+03 19 34.21         21.46GVES133V06
     K23Q47B KC2023 09 19.40353323 07 44.418+03 19 33.96         21.33GVES133V06
     K23Q47B KC2023 09 20.19958 23 07 27.90 +03 18 45.4          22.0 RoES133291
     K23Q47B KC2023 09 20.21609 23 07 27.56 +03 18 44.6          21.5 RoES133291
     K23Q47B KC2023 09 20.23259 23 07 27.26 +03 18 43.5          21.9 RoES133291

Observer details:
291 LPL/Spacewatch II.  Observer J. V. Scotti.  1.8-m f/2.7 reflector + CCD.
F51 Pan-STARRS 1, Haleakala.  Observers J. Bulger, K. Chambers, T. Lowe, P.
    Minguez, A. Schultz, I. Smith.  Measurers S. Chastel, J. Fairlamb, M.
    Huber, Y. Ramanjooloo, R. Wainscoat, R. Weryk, K. Chambers, T. de Boer, H.
    Gao, C.-C. Lin, E. Magnier.  1.8-m Ritchey-Chretien + CCD.
F52 Pan-STARRS 2, Haleakala.  Observers J. Bulger, K. Chambers, T. Lowe, P.
    Minguez, A. Schultz, I. Smith, T. Dukes.  Measurers S. Chastel, J.
    Fairlamb, M. Huber, Y. Ramanjooloo, R. Wainscoat, R. Weryk.  1.8-m
    Ritchey-Chretien + CCD.
G96 Mt. Lemmon Survey.  Observer A. R. Gibbs.  Measurers B. Gray, D. Rankin,
    F. C. Shelly.  1.5-m reflector + 10K CCD.
V00 Kitt Peak-Bok.  Observer R. A. Mastaler.  Measurers M. J. Brucker, C. E.
    Woodward, D. Fay, J. B. Fazekas, D. C. Fuls, A. R. Gibbs, H. Groeller, J.
    K. Hogan, R. A. Kowalski, S. M. Larson, C. Lejoly, G. J. Leonard, R. A.
    Mastaler, R. S. McMillan, D. Rankin, R. L. Seaman, A. Serrano, F. C.
    Shelly, K. W. Wierzchos.  2.25-m reflector + 4x4K mosaic CCD.
V06 Catalina Sky Survey-Kuiper.  Observer K. W. Wierzchos.  Measurers E. J.
    Christensen, D. Fay, J. B. Fazekas, D. C. Fuls, A. R. Gibbs, A. D. Grauer,
    H. Groeller, J. K. Hogan, R. A. Kowalski, S. M. Larson, G. J. Leonard, D.
    Rankin, R. L. Seaman, A. Serrano, F. C. Shelly, K. W. Wierzchos.  1.55-m
    reflector + 1K CCD.

Orbital elements:
2023 QB47                                                                       
Epoch 2023 Sept. 13.0 TT = JDT 2460200.5                Veres                   
M 349.87703              (2000.0)            P               Q                  
n   0.01189906     Peri.   78.27989     +0.61771360     -0.76686585             
a  19.0017785      Node   331.20571     +0.50335249     +0.55575332             
e   0.6661196      Incl.   21.20262     +0.60420706     +0.32102182             
P  82.8            H   13.19          G   0.15           U   3                  
Residuals in seconds of arc
210606 F51  0.4+  0.2-    220901 F51  0.2-  0.1-    230821 F52  0.4-  0.2-
210803 F51  0.0   0.1+    220922 F51  0.0   0.0     230821 F52  0.0   0.1-
210803 F51  0.1+  0.3+    220922 F51  0.2+  0.3-    230824 F51  0.1-  0.0
210803 F51  0.1-  0.2+    220922 F51  0.5-  0.1-    230906 G96  0.2-  0.1-
210831 F51  0.3-  0.0     220922 F51  0.1+  0.0     230906 G96  0.1-  0.2+
210831 F51  0.1+  0.2-    221024 F52  0.3-  0.2+    230913 F51  0.1-  0.1+
210907 F51  0.0   0.2-    221116 F51  0.0   0.0     230913 F51  0.0   0.0
220818 F51  0.3+  0.4-    230625 F51  0.1+  0.0     230913 F51  0.0   0.0
220818 F51  0.1+  0.1+    230715 F52  0.2-  0.0     230919 V00  0.1+  0.1-
220818 F51  0.0   0.0     230715 F52  0.1+  0.4-    230919 V00  0.1+  0.1+
220818 F52  0.3+  0.1+    230715 F52  0.3-  0.1-    230919 V00  0.2+  0.1+
220828 F52  0.2-  0.0     230818 F51  0.0   0.0     230919 V00  0.1-  0.1+
220828 F52  0.2+  0.0     230818 F51  0.1-  0.0     230919 V06  0.1-  0.1+
220828 F52  0.0   0.1+    230818 F51  0.0   0.2-    230919 V06  0.0   0.1+
220828 F51  0.2-  0.1+    230821 F52  0.4+  0.1+    230919 V06  0.2+  0.1+
220828 F51  0.1-  0.1+    230821 F52  0.1+  0.0     230920 291  0.1-  0.1-
220901 F51  0.0   0.0     230821 F52  0.2+  0.0     230920 291  0.0   0.1+
220901 F51  0.0   0.1+    230821 F52  0.2-  0.3+    230920 291  0.8+  0.0
220901 F51  0.0   0.0     230821 F52  0.1+  0.1+

Ephemeris:
2023 QB47                a,e,i = 19.00, 0.67, 21                 q = 6.3443
Date    TT    R. A. (2000) Decl.     Delta      r    Elong.  Phase     V
2023 08 22    23 17 28.4 +03 38 59   6.9707  7.9027   155.6     3.0    22.2
...
2023 09 06    23 12 27.5 +03 31 31   6.8653  7.8574   169.0     1.4    22.0
...
2023 09 14    23 09 38.3 +03 24 50   6.8360  7.8333   171.8     1.0    22.0
...
2023 09 20    23 07 32.0 +03 18 58   6.8267  7.8153   169.1     1.4    22.0
2023 09 21    23 07 11.3 +03 17 56   6.8262  7.8123   168.3     1.5    22.0
2023 09 22    23 06 50.6 +03 16 54   6.8260  7.8093   167.5     1.6    22.0
...
2023 09 28    23 04 49.8 +03 10 30   6.8310  7.7915   162.2     2.3    22.1
...
2023 10 06    23 02 19.7 +03 01 50   6.8538  7.7677   154.4     3.2    22.1
...
2023 10 21    22 58 29.5 +02 47 05   6.9427  7.7235   139.2     4.8    22.2

M. P. C. Staff               (C) Copyright 2023 MPC           M.P.E.C. 2023-S133





More information about the Iaude mailing list